Location: Table Mountain
(47.2500°N, 120.5778°W)
Time: 22:17:21
(UTC-08:00)

Envisat - Pass Details

Date: 15 October 2017
Orbit: 764 x 766 km, 98.2° (Epoch: 13 December)

Event Time Altitude Azimuth Distance (km) Brightness Sun altitude
Exits shadow 20:03:31 38° 95° (E) 1,160 3.4 -19.3°
Maximum altitude 20:04:26 42° 68° (ENE) 1,092 3.4 -19.5°
Drops below altitude 10° 20:09:12 10° 359° (N) 2,313 5.6 -20.3°
Sets 20:11:37 0° 352° (N) 3,244 6.5 -20.7°
